User: anonymous   Login
Location: Byszew
(52.1813°N, 19.2693°E)
Time: 15:15:06
(UTC+00:00)
Language:

SJ-6B - Orbit

View from above orbital plane
View from above orbital plane
View from above satellite
View from above satellite

Ground track
Ground track

The orbit data is extracted from the following two-line orbital elements,

1 28415U 04035C   21125.87545463  .00000416  00000-0  31267-4 0  9999
2 28415  97.5692 169.1169 0050553 334.2436  25.6275 15.07097709912190
Epoch (UTC): 05 May 2021 21:00:39
Eccentricity: 0.0050553
inclination: 97.5692°
perigee height: 510 km
apogee height: 580 km
right ascension of ascending node: 169.1169°
argument of perigee: 334.2436°
revolutions per day: 15.07097709
mean anomaly at epoch: 25.6275°
orbit number at epoch: 91219

The dashed part of the orbit path shows where the satellite is in the earth's shadow,  

DLR